owner,sensor,date,latitude,longitude,vertical_datum,direction_of_sea_water_velocity,sea_water_speed,upward_sea_water_velocity,qcFlag 
TABS,ioos:station:wmo:42045:1,2017-03-01T00:00:00Z,26.2168,-96.4998,2.0,164.5814525,15.08282798,-99999.0,'11111222,11111222,99999999' 
TABS,ioos:station:wmo:42045:1,2017-03-01T00:30:00Z,26.2168,-96.4998,2.0,166.8051493,6.440015528,-99999.0,'11133222,11111222,99999999' 
TABS,ioos:station:wmo:42045:1,2017-03-01T01:00:00Z,26.2168,-96.4998,2.0,165.6813863,13.78831752,-99999.0,'11111222,11111222,99999999' 
TABS,ioos:station:wmo:42045:1,2017-03-01T01:30:00Z,26.2168,-96.4998,2.0,182.345439,15.39289771,-99999.0,'11111222,11111222,99999999' 
TABS,ioos:station:wmo:42045:1,2017-03-01T02:00:00Z,26.2168,-96.4998,2.0,188.2939258,11.85398667,-99999.0,'11111222,11111222,99999999' 
TABS,ioos:station:wmo:42045:1,2017-03-01T02:30:00Z,26.2168,-96.4998,2.0,183.1655709,13.58072531,-99999.0,'11111222,11111222,99999999' 
TABS,ioos:station:wmo:42045:1,2017-03-01T03:00:00Z,26.2168,-96.4998,2.0,181.6237156,11.6446769,-99999.0,'11111222,11111222,99999999' 
TABS,ioos:station:wmo:42045:1,2017-03-01T03:30:00Z,26.2168,-96.4998,2.0,184.8966951,7.497366204,-99999.0,'11133222,11111222,99999999' 
TABS,ioos:station:wmo:42045:1,2017-03-01T04:00:00Z,26.2168,-96.4998,2.0,202.2269769,7.745566474,-99999.0,'11133222,11111222,99999999' 
TABS,ioos:station:wmo:42045:1,2017-03-01T04:30:00Z,26.2168,-96.4998,2.0,222.1933206,5.776919594,-99999.0,'11133222,11111222,99999999' 
TABS,ioos:station:wmo:42045:1,2017-03-01T05:00:00Z,26.2168,-96.4998,2.0,252.8552206,5.054601864,-99999.0,'11133222,11111222,99999999' 
TABS,ioos:station:wmo:42045:1,2017-03-01T05:30:00Z,26.2168,-96.4998,2.0,313.7727397,1.980353504,-99999.0,'11133222,11111222,99999999' 
TABS,ioos:station:wmo:42045:1,2017-03-01T06:00:00Z,26.2168,-96.4998,2.0,276.2989485,4.557510285,-99999.0,'11133222,11111222,99999999' 
TABS,ioos:station:wmo:42045:1,2017-03-01T06:30:00Z,26.2168,-96.4998,2.0,302.9612317,1.525549081,-99999.0,'11133222,11111222,99999999' 
TABS,ioos:station:wmo:42045:1,2017-03-01T07:00:00Z,26.2168,-96.4998,2.0,215.88655,2.098308843,-99999.0,'11133222,11111222,99999999' 
TABS,ioos:station:wmo:42045:1,2017-03-01T07:30:00Z,26.2168,-96.4998,2.0,8.579255915,2.346252331,-99999.0,'11133222,11111222,99999999' 
TABS,ioos:station:wmo:42045:1,2017-03-01T08:00:00Z,26.2168,-96.4998,2.0,93.31777341,2.073475343,-99999.0,'11133222,11111222,99999999' 
TABS,ioos:station:wmo:42045:1,2017-03-01T08:30:00Z,26.2168,-96.4998,2.0,59.09178115,3.543162429,-99999.0,'11133222,11111222,99999999' 
TABS,ioos:station:wmo:42045:1,2017-03-01T09:00:00Z,26.2168,-96.4998,2.0,81.72948643,5.770008666,-99999.0,'11133222,11111222,99999999' 
TABS,ioos:station:wmo:42045:1,2017-03-01T09:30:00Z,26.2168,-96.4998,2.0,103.7301834,4.086783576,-99999.0,'11133222,11111222,99999999' 
TABS,ioos:station:wmo:42045:1,2017-03-01T10:00:00Z,26.2168,-96.4998,2.0,97.78926726,6.419228926,-99999.0,'11133222,11111222,99999999' 
TABS,ioos:station:wmo:42045:1,2017-03-01T10:30:00Z,26.2168,-96.4998,2.0,92.31956821,7.906478356,-99999.0,'11133222,11111222,99999999' 
TABS,ioos:station:wmo:42045:1,2017-03-01T11:00:00Z,26.2168,-96.4998,2.0,101.1130145,7.989818521,-99999.0,'11133222,11111222,99999999' 
TABS,ioos:station:wmo:42045:1,2017-03-01T11:30:00Z,26.2168,-96.4998,2.0,117.0210858,11.79786845,-99999.0,'11111222,11111222,99999999' 
TABS,ioos:station:wmo:42045:1,2017-03-01T12:00:00Z,26.2168,-96.4998,2.0,122.3584038,17.54435807,-99999.0,'11111222,11111222,99999999' 
TABS,ioos:station:wmo:42045:1,2017-03-01T12:30:00Z,26.2168,-96.4998,2.0,119.0975688,11.63892177,-99999.0,'11111222,11111222,99999999' 
TABS,ioos:station:wmo:42045:1,2017-03-01T13:00:00Z,26.2168,-96.4998,2.0,133.2139162,16.10864675,-99999.0,'11111222,11111222,99999999' 
TABS,ioos:station:wmo:42045:1,2017-03-01T13:30:00Z,26.2168,-96.4998,2.0,130.4366757,16.62019555,-99999.0,'11111222,11111222,99999999' 
TABS,ioos:station:wmo:42045:1,2017-03-01T14:00:00Z,26.2168,-96.4998,2.0,136.9199618,17.30554824,-99999.0,'11111222,11111222,99999999' 
TABS,ioos:station:wmo:42045:1,2017-03-01T14:30:00Z,26.2168,-96.4998,2.0,140.9394094,18.31338308,-99999.0,'11111222,11111222,99999999' 
TABS,ioos:station:wmo:42045:1,2017-03-01T15:00:00Z,26.2168,-96.4998,2.0,142.3342564,20.16194435,-99999.0,'11111222,11111222,99999999' 
TABS,ioos:station:wmo:42045:1,2017-03-01T15:30:00Z,26.2168,-96.4998,2.0,152.5396289,21.46887282,-99999.0,'11111222,11111222,99999999' 
TABS,ioos:station:wmo:42045:1,2017-03-01T16:00:00Z,26.2168,-96.4998,2.0,150.5905268,21.17929413,-99999.0,'11111222,11111222,99999999' 
TABS,ioos:station:wmo:42045:1,2017-03-01T16:30:00Z,26.2168,-96.4998,2.0,148.8449932,20.56622474,-99999.0,'11111222,11111222,99999999' 
TABS,ioos:station:wmo:42045:1,2017-03-01T17:00:00Z,26.2168,-96.4998,2.0,150.6545275,20.09907709,-99999.0,'11111222,11111222,99999999' 
TABS,ioos:station:wmo:42045:1,2017-03-01T17:30:00Z,26.2168,-96.4998,2.0,150.2365715,23.16596857,-99999.0,'11111222,11111222,99999999' 
TABS,ioos:station:wmo:42045:1,2017-03-01T18:00:00Z,26.2168,-96.4998,2.0,155.350848,24.74474692,-99999.0,'11111222,11111222,99999999' 
TABS,ioos:station:wmo:42045:1,2017-03-01T18:30:00Z,26.2168,-96.4998,2.0,157.2709261,26.27004758,-99999.0,'11111222,11111222,99999999' 
TABS,ioos:station:wmo:42045:1,2017-03-01T19:00:00Z,26.2168,-96.4998,2.0,162.3869279,26.67023247,-99999.0,'11111222,11111222,99999999' 
TABS,ioos:station:wmo:42045:1,2017-03-01T19:30:00Z,26.2168,-96.4998,2.0,168.542486,26.68168848,-99999.0,'11111222,11111222,99999999' 
TABS,ioos:station:wmo:42045:1,2017-03-01T20:00:00Z,26.2168,-96.4998,2.0,167.4117272,27.25515731,-99999.0,'11111222,11111222,99999999' 
TABS,ioos:station:wmo:42045:1,2017-03-01T20:30:00Z,26.2168,-96.4998,2.0,170.2668145,26.79568995,-99999.0,'11111222,11111222,99999999' 
TABS,ioos:station:wmo:42045:1,2017-03-01T21:00:00Z,26.2168,-96.4998,2.0,172.8047035,30.41954142,-99999.0,'11111222,11111222,99999999' 
TABS,ioos:station:wmo:42045:1,2017-03-01T21:30:00Z,26.2168,-96.4998,2.0,181.463837,30.92009379,-99999.0,'11111222,11111222,99999999' 
TABS,ioos:station:wmo:42045:1,2017-03-01T22:00:00Z,26.2168,-96.4998,2.0,184.9780095,32.15128302,-99999.0,'11111222,11111222,99999999' 
TABS,ioos:station:wmo:42045:1,2017-03-01T22:30:00Z,26.2168,-96.4998,2.0,186.2387341,33.12619658,-99999.0,'11111222,11111222,99999999' 
TABS,ioos:station:wmo:42045:1,2017-03-01T23:00:00Z,26.2168,-96.4998,2.0,197.2278387,35.28303417,-99999.0,'11111222,11111222,99999999' 
TABS,ioos:station:wmo:42045:1,2017-03-01T23:30:00Z,26.2168,-96.4998,2.0,200.2032325,34.42830522,-99999.0,'11111222,11111222,99999999' 
TABS,ioos:station:wmo:42045:1,2017-03-02T00:00:00Z,26.2168,-96.4998,2.0,204.5885397,33.71759926,-99999.0,'11111222,11111222,99999999' 
TABS,ioos:station:wmo:42045:1,2017-03-02T00:30:00Z,26.2168,-96.4998,2.0,203.9009367,35.12185929,-99999.0,'11111222,11111222,99999999' 
TABS,ioos:station:wmo:42045:1,2017-03-02T01:00:00Z,26.2168,-96.4998,2.0,208.315268,34.1114834,-99999.0,'11111222,11111222,99999999' 
TABS,ioos:station:wmo:42045:1,2017-03-02T01:30:00Z,26.2168,-96.4998,2.0,211.0968183,36.84485581,-99999.0,'11111222,11111222,99999999' 
TABS,ioos:station:wmo:42045:1,2017-03-02T02:00:00Z,26.2168,-96.4998,2.0,216.5388505,38.110635,-99999.0,'11111222,11111222,99999999' 
TABS,ioos:station:wmo:42045:1,2017-03-02T02:30:00Z,26.2168,-96.4998,2.0,222.2251286,37.54188195,-99999.0,'11111222,11111222,99999999' 
TABS,ioos:station:wmo:42045:1,2017-03-02T03:00:00Z,26.2168,-96.4998,2.0,222.7537237,35.54527957,-99999.0,'11111222,11111222,99999999' 
TABS,ioos:station:wmo:42045:1,2017-03-02T03:30:00Z,26.2168,-96.4998,2.0,218.9020861,40.20729536,-99999.0,'11111222,11111222,99999999' 
TABS,ioos:station:wmo:42045:1,2017-03-02T04:00:00Z,26.2168,-96.4998,2.0,220.1011812,39.9134689,-99999.0,'11111222,11111222,99999999' 
TABS,ioos:station:wmo:42045:1,2017-03-02T04:30:00Z,26.2168,-96.4998,2.0,221.6071813,38.3570502,-99999.0,'11111222,11111222,99999999' 
TABS,ioos:station:wmo:42045:1,2017-03-02T05:00:00Z,26.2168,-96.4998,2.0,219.8385983,41.81813243,-99999.0,'11111222,11111222,99999999' 
TABS,ioos:station:wmo:42045:1,2017-03-02T05:30:00Z,26.2168,-96.4998,2.0,221.678808,39.67166873,-99999.0,'11111222,11111222,99999999' 
TABS,ioos:station:wmo:42045:1,2017-03-02T06:00:00Z,26.2168,-96.4998,2.0,220.5850545,42.900169,-99999.0,'11111222,11111222,99999999' 
TABS,ioos:station:wmo:42045:1,2017-03-02T06:30:00Z,26.2168,-96.4998,2.0,223.1408432,41.85446213,-99999.0,'11111222,11111222,99999999' 
TABS,ioos:station:wmo:42045:1,2017-03-02T07:00:00Z,26.2168,-96.4998,2.0,224.8819971,44.75288259,-99999.0,'11111222,11111222,99999999' 
TABS,ioos:station:wmo:42045:1,2017-03-02T07:30:00Z,26.2168,-96.4998,2.0,224.8051485,43.7348065,-99999.0,'11111222,11111222,99999999' 
TABS,ioos:station:wmo:42045:1,2017-03-02T08:00:00Z,26.2168,-96.4998,2.0,226.1337412,44.30184646,-99999.0,'11111222,11111222,99999999' 
TABS,ioos:station:wmo:42045:1,2017-03-02T08:30:00Z,26.2168,-96.4998,2.0,226.6905076,42.65711195,-99999.0,'11111222,11111222,99999999' 
TABS,ioos:station:wmo:42045:1,2017-03-02T09:00:00Z,26.2168,-96.4998,2.0,234.2086336,42.06345682,-99999.0,'11111222,11111222,99999999' 
TABS,ioos:station:wmo:42045:1,2017-03-02T09:30:00Z,26.2168,-96.4998,2.0,229.8138037,43.98163708,-99999.0,'11111222,11111222,99999999' 
TABS,ioos:station:wmo:42045:1,2017-03-02T10:00:00Z,26.2168,-96.4998,2.0,225.2034444,41.75491947,-99999.0,'11111222,11111222,99999999' 
TABS,ioos:station:wmo:42045:1,2017-03-02T10:30:00Z,26.2168,-96.4998,2.0,232.8060669,42.48067796,-99999.0,'11111222,11111222,99999999' 
TABS,ioos:station:wmo:42045:1,2017-03-02T11:00:00Z,26.2168,-96.4998,2.0,224.9525894,43.01332003,-99999.0,'11111222,11111222,99999999' 
TABS,ioos:station:wmo:42045:1,2017-03-02T11:30:00Z,26.2168,-96.4998,2.0,230.3375681,39.37274438,-99999.0,'11111222,11111222,99999999' 
TABS,ioos:station:wmo:42045:1,2017-03-02T12:00:00Z,26.2168,-96.4998,2.0,225.3874157,40.75149691,-99999.0,'11111222,11111222,99999999' 
TABS,ioos:station:wmo:42045:1,2017-03-02T12:30:00Z,26.2168,-96.4998,2.0,222.3449421,38.77692613,-99999.0,'11111222,11111222,99999999' 
TABS,ioos:station:wmo:42045:1,2017-03-02T13:00:00Z,26.2168,-96.4998,2.0,223.5340393,39.53313167,-99999.0,'11111222,11111222,99999999' 
TABS,ioos:station:wmo:42045:1,2017-03-02T13:30:00Z,26.2168,-96.4998,2.0,223.5604964,41.38587319,-99999.0,'11111222,11111222,99999999' 
TABS,ioos:station:wmo:42045:1,2017-03-02T14:00:00Z,26.2168,-96.4998,2.0,219.4399305,39.55779822,-99999.0,'11111222,11111222,99999999' 
TABS,ioos:station:wmo:42045:1,2017-03-02T14:30:00Z,26.2168,-96.4998,2.0,218.2910032,41.52277688,-99999.0,'11111222,11111222,99999999' 
TABS,ioos:station:wmo:42045:1,2017-03-02T15:00:00Z,26.2168,-96.4998,2.0,217.4712981,36.37600583,-99999.0,'11111222,11111222,99999999' 
TABS,ioos:station:wmo:42045:1,2017-03-02T15:30:00Z,26.2168,-96.4998,2.0,220.5753443,38.77306926,-99999.0,'11111222,11111222,99999999' 
TABS,ioos:station:wmo:42045:1,2017-03-02T16:00:00Z,26.2168,-96.4998,2.0,220.1318563,36.16460424,-99999.0,'11111222,11111222,99999999' 
TABS,ioos:station:wmo:42045:1,2017-03-02T16:30:00Z,26.2168,-96.4998,2.0,219.8371827,36.7773191,-99999.0,'11111222,11111222,99999999' 
TABS,ioos:station:wmo:42045:1,2017-03-02T17:00:00Z,26.2168,-96.4998,2.0,217.322937,34.88309189,-99999.0,'11111222,11111222,99999999' 
TABS,ioos:station:wmo:42045:1,2017-03-02T17:30:00Z,26.2168,-96.4998,2.0,217.3210274,31.22296911,-99999.0,'11111222,11111222,99999999' 
TABS,ioos:station:wmo:42045:1,2017-03-02T18:00:00Z,26.2168,-96.4998,2.0,217.9184185,35.61996771,-99999.0,'11111222,11111222,99999999' 
TABS,ioos:station:wmo:42045:1,2017-03-02T18:30:00Z,26.2168,-96.4998,2.0,212.833286,33.95421918,-99999.0,'11111222,11111222,99999999' 
TABS,ioos:station:wmo:42045:1,2017-03-02T19:00:00Z,26.2168,-96.4998,2.0,216.2070456,35.11034748,-99999.0,'11111222,11111222,99999999' 
TABS,ioos:station:wmo:42045:1,2017-03-02T19:30:00Z,26.2168,-96.4998,2.0,208.8625715,31.34357031,-99999.0,'11111222,11111222,99999999' 
TABS,ioos:station:wmo:42045:1,2017-03-02T20:00:00Z,26.2168,-96.4998,2.0,210.8064838,33.79906803,-99999.0,'11111222,11111222,99999999' 
TABS,ioos:station:wmo:42045:1,2017-03-02T20:30:00Z,26.2168,-96.4998,2.0,212.5865004,36.87498475,-99999.0,'11111222,11111222,99999999' 
TABS,ioos:station:wmo:42045:1,2017-03-02T21:00:00Z,26.2168,-96.4998,2.0,213.7195474,32.02839365,-99999.0,'11111222,11111222,99999999' 
TABS,ioos:station:wmo:42045:1,2017-03-02T21:30:00Z,26.2168,-96.4998,2.0,219.9978609,33.90051622,-99999.0,'11111222,11111222,99999999' 
TABS,ioos:station:wmo:42045:1,2017-03-02T22:00:00Z,26.2168,-96.4998,2.0,215.7655748,34.15033968,-99999.0,'11111222,11111222,99999999' 
TABS,ioos:station:wmo:42045:1,2017-03-02T22:30:00Z,26.2168,-96.4998,2.0,213.1650556,33.61624161,-99999.0,'11111222,11111222,99999999' 
TABS,ioos:station:wmo:42045:1,2017-03-02T23:00:00Z,26.2168,-96.4998,2.0,214.6326271,32.02440476,-99999.0,'11111222,11111222,99999999' 
TABS,ioos:station:wmo:42045:1,2017-03-02T23:30:00Z,26.2168,-96.4998,2.0,213.8128622,33.56775983,-99999.0,'11111222,11111222,99999999' 
TABS,ioos:station:wmo:42045:1,2017-03-03T00:00:00Z,26.2168,-96.4998,2.0,212.8910605,34.61942952,-99999.0,'11111222,11111222,99999999' 
TABS,ioos:station:wmo:42045:1,2017-03-03T00:30:00Z,26.2168,-96.4998,2.0,215.9332028,30.96213494,-99999.0,'11111222,11111222,99999999' 
TABS,ioos:station:wmo:42045:1,2017-03-03T01:00:00Z,26.2168,-96.4998,2.0,218.4514669,33.97894937,-99999.0,'11111222,11111222,99999999' 
TABS,ioos:station:wmo:42045:1,2017-03-03T01:30:00Z,26.2168,-96.4998,2.0,216.9729454,32.15605231,-99999.0,'11111222,11111222,99999999' 
TABS,ioos:station:wmo:42045:1,2017-03-03T02:00:00Z,26.2168,-96.4998,2.0,209.7828615,35.2916109,-99999.0,'11111222,11111222,99999999' 
TABS,ioos:station:wmo:42045:1,2017-03-03T02:30:00Z,26.2168,-96.4998,2.0,217.0399988,35.64215762,-99999.0,'11111222,11111222,99999999' 
TABS,ioos:station:wmo:42045:1,2017-03-03T03:00:00Z,26.2168,-96.4998,2.0,216.0845403,32.98909668,-99999.0,'11111222,11111222,99999999' 
TABS,ioos:station:wmo:42045:1,2017-03-03T03:30:00Z,26.2168,-96.4998,2.0,216.6611441,34.08222557,-99999.0,'11111222,11111222,99999999' 
TABS,ioos:station:wmo:42045:1,2017-03-03T04:00:00Z,26.2168,-96.4998,2.0,209.9088151,32.89042566,-99999.0,'11111222,11111222,99999999' 
TABS,ioos:station:wmo:42045:1,2017-03-03T04:30:00Z,26.2168,-96.4998,2.0,212.1637207,39.05365156,-99999.0,'11111222,11111222,99999999' 
TABS,ioos:station:wmo:42045:1,2017-03-03T05:00:00Z,26.2168,-96.4998,2.0,208.1406799,36.42590836,-99999.0,'11111222,11111222,99999999' 
TABS,ioos:station:wmo:42045:1,2017-03-03T05:30:00Z,26.2168,-96.4998,2.0,212.5798794,39.51870949,-99999.0,'11111222,11111222,99999999' 
TABS,ioos:station:wmo:42045:1,2017-03-03T06:00:00Z,26.2168,-96.4998,2.0,212.5627103,36.37873005,-99999.0,'11111222,11111222,99999999' 
TABS,ioos:station:wmo:42045:1,2017-03-03T06:30:00Z,26.2168,-96.4998,2.0,207.007999,38.73432844,-99999.0,'11111222,11111222,99999999' 
TABS,ioos:station:wmo:42045:1,2017-03-03T07:00:00Z,26.2168,-96.4998,2.0,212.3112721,40.46599684,-99999.0,'11111222,11111222,99999999' 
TABS,ioos:station:wmo:42045:1,2017-03-03T07:30:00Z,26.2168,-96.4998,2.0,214.2154117,38.09286547,-99999.0,'11111222,11111222,99999999' 
TABS,ioos:station:wmo:42045:1,2017-03-03T08:00:00Z,26.2168,-96.4998,2.0,213.5783238,39.92184865,-99999.0,'11111222,11111222,99999999' 
TABS,ioos:station:wmo:42045:1,2017-03-03T08:30:00Z,26.2168,-96.4998,2.0,212.061096,37.95960221,-99999.0,'11111222,11111222,99999999' 
TABS,ioos:station:wmo:42045:1,2017-03-03T09:00:00Z,26.2168,-96.4998,2.0,215.2543939,38.59933678,-99999.0,'11111222,11111222,99999999' 
TABS,ioos:station:wmo:42045:1,2017-03-03T09:30:00Z,26.2168,-96.4998,2.0,216.4646807,37.63893994,-99999.0,'11111222,11111222,99999999' 
TABS,ioos:station:wmo:42045:1,2017-03-03T10:00:00Z,26.2168,-96.4998,2.0,215.9563447,37.51876597,-99999.0,'11111222,11111222,99999999' 
TABS,ioos:station:wmo:42045:1,2017-03-03T10:30:00Z,26.2168,-96.4998,2.0,213.5597551,39.10923804,-99999.0,'11111222,11111222,99999999' 
TABS,ioos:station:wmo:42045:1,2017-03-03T11:00:00Z,26.2168,-96.4998,2.0,217.8267184,37.71526216,-99999.0,'11111222,11111222,99999999' 
TABS,ioos:station:wmo:42045:1,2017-03-03T11:30:00Z,26.2168,-96.4998,2.0,221.5076269,35.98784517,-99999.0,'11111222,11111222,99999999' 
TABS,ioos:station:wmo:42045:1,2017-03-03T12:00:00Z,26.2168,-96.4998,2.0,220.6776104,36.49858216,-99999.0,'11111222,11111222,99999999' 
TABS,ioos:station:wmo:42045:1,2017-03-03T12:30:00Z,26.2168,-96.4998,2.0,217.4238809,35.55966395,-99999.0,'11111222,11111222,99999999' 
TABS,ioos:station:wmo:42045:1,2017-03-03T13:00:00Z,26.2168,-96.4998,2.0,219.1861633,32.11224377,-99999.0,'11111222,11111222,99999999' 
TABS,ioos:station:wmo:42045:1,2017-03-03T13:30:00Z,26.2168,-96.4998,2.0,221.6401015,34.62996535,-99999.0,'11111222,11111222,99999999' 
TABS,ioos:station:wmo:42045:1,2017-03-03T14:00:00Z,26.2168,-96.4998,2.0,217.4635299,30.67764821,-99999.0,'11111222,11111222,99999999' 
TABS,ioos:station:wmo:42045:1,2017-03-03T14:30:00Z,26.2168,-96.4998,2.0,222.3693235,33.74333267,-99999.0,'11111222,11111222,99999999' 
TABS,ioos:station:wmo:42045:1,2017-03-03T15:00:00Z,26.2168,-96.4998,2.0,224.3186211,33.90816568,-99999.0,'11111222,11111222,99999999' 
TABS,ioos:station:wmo:42045:1,2017-03-03T15:30:00Z,26.2168,-96.4998,2.0,223.3517259,30.48891274,-99999.0,'11111222,11111222,99999999' 
TABS,ioos:station:wmo:42045:1,2017-03-03T16:00:00Z,26.2168,-96.4998,2.0,225.3071714,31.62227063,-99999.0,'11111222,11111222,99999999' 
TABS,ioos:station:wmo:42045:1,2017-03-03T16:30:00Z,26.2168,-96.4998,2.0,225.5628696,29.4948487,-99999.0,'11111222,11111222,99999999' 
TABS,ioos:station:wmo:42045:1,2017-03-03T17:00:00Z,26.2168,-96.4998,2.0,228.3180919,27.72972593,-99999.0,'11111222,11111222,99999999' 
TABS,ioos:station:wmo:42045:1,2017-03-03T17:30:00Z,26.2168,-96.4998,2.0,224.0123741,31.18803937,-99999.0,'11111222,11111222,99999999' 
TABS,ioos:station:wmo:42045:1,2017-03-03T18:00:00Z,26.2168,-96.4998,2.0,227.8909471,27.3361903,-99999.0,'11111222,11111222,99999999' 
TABS,ioos:station:wmo:42045:1,2017-03-03T18:30:00Z,26.2168,-96.4998,2.0,225.3971397,26.50299983,-99999.0,'11111222,11111222,99999999' 
TABS,ioos:station:wmo:42045:1,2017-03-03T19:00:00Z,26.2168,-96.4998,2.0,232.126458,28.32634286,-99999.0,'11111222,11111222,99999999' 
TABS,ioos:station:wmo:42045:1,2017-03-03T19:30:00Z,26.2168,-96.4998,2.0,233.8509677,28.12422799,-99999.0,'11111222,11111222,99999999' 
TABS,ioos:station:wmo:42045:1,2017-03-03T20:00:00Z,26.2168,-96.4998,2.0,228.954217,25.32522261,-99999.0,'11111222,11111222,99999999' 
TABS,ioos:station:wmo:42045:1,2017-03-03T20:30:00Z,26.2168,-96.4998,2.0,225.4845663,25.90224894,-99999.0,'11111222,11111222,99999999' 
TABS,ioos:station:wmo:42045:1,2017-03-03T21:00:00Z,26.2168,-96.4998,2.0,229.8597679,27.2083002,-99999.0,'11111222,11111222,99999999' 
TABS,ioos:station:wmo:42045:1,2017-03-03T21:30:00Z,26.2168,-96.4998,2.0,226.8889893,23.80708508,-99999.0,'11111222,11111222,99999999' 
TABS,ioos:station:wmo:42045:1,2017-03-03T22:00:00Z,26.2168,-96.4998,2.0,230.6392003,24.39304204,-99999.0,'11111222,11111222,99999999' 
TABS,ioos:station:wmo:42045:1,2017-03-03T22:30:00Z,26.2168,-96.4998,2.0,228.1880258,21.10444977,-99999.0,'11111222,11111222,99999999' 
TABS,ioos:station:wmo:42045:1,2017-03-03T23:00:00Z,26.2168,-96.4998,2.0,227.7308587,23.7433317,-99999.0,'11111222,11111222,99999999' 
TABS,ioos:station:wmo:42045:1,2017-03-03T23:30:00Z,26.2168,-96.4998,2.0,226.5384854,21.06523677,-99999.0,'11111222,11111222,99999999' 
TABS,ioos:station:wmo:42045:1,2017-03-04T00:00:00Z,26.2168,-96.4998,2.0,232.4545053,20.87344964,-99999.0,'11111222,11111222,99999999' 
TABS,ioos:station:wmo:42045:1,2017-03-04T00:30:00Z,26.2168,-96.4998,2.0,225.1851065,21.84971396,-99999.0,'11111222,11111222,99999999' 
TABS,ioos:station:wmo:42045:1,2017-03-04T01:00:00Z,26.2168,-96.4998,2.0,232.9794009,19.81406823,-99999.0,'11111222,11111222,99999999' 
TABS,ioos:station:wmo:42045:1,2017-03-04T01:30:00Z,26.2168,-96.4998,2.0,216.3780716,20.28274636,-99999.0,'11111222,11111222,99999999' 
TABS,ioos:station:wmo:42045:1,2017-03-04T02:00:00Z,26.2168,-96.4998,2.0,222.7655572,17.77603443,-99999.0,'11111222,11111222,99999999' 
TABS,ioos:station:wmo:42045:1,2017-03-04T02:30:00Z,26.2168,-96.4998,2.0,217.6053505,17.91147677,-99999.0,'11111222,11111222,99999999' 
TABS,ioos:station:wmo:42045:1,2017-03-04T03:00:00Z,26.2168,-96.4998,2.0,221.1290448,20.00726118,-99999.0,'11111222,11111222,99999999' 
TABS,ioos:station:wmo:42045:1,2017-03-04T03:30:00Z,26.2168,-96.4998,2.0,215.4339819,18.67986349,-99999.0,'11111222,11111222,99999999' 
TABS,ioos:station:wmo:42045:1,2017-03-04T04:00:00Z,26.2168,-96.4998,2.0,219.2597565,19.23073062,-99999.0,'11111222,11111222,99999999' 
TABS,ioos:station:wmo:42045:1,2017-03-04T04:30:00Z,26.2168,-96.4998,2.0,215.529354,16.58853821,-99999.0,'11111222,11111222,99999999' 
TABS,ioos:station:wmo:42045:1,2017-03-04T05:00:00Z,26.2168,-96.4998,2.0,217.6713034,17.29569311,-99999.0,'11111222,11111222,99999999' 
TABS,ioos:station:wmo:42045:1,2017-03-04T05:30:00Z,26.2168,-96.4998,2.0,223.0005536,14.99979333,-99999.0,'11111222,11111222,99999999' 
TABS,ioos:station:wmo:42045:1,2017-03-04T06:00:00Z,26.2168,-96.4998,2.0,210.249184,17.74633765,-99999.0,'11111222,11111222,99999999' 
TABS,ioos:station:wmo:42045:1,2017-03-04T06:30:00Z,26.2168,-96.4998,2.0,206.9973717,15.99281401,-99999.0,'11111222,11111222,99999999' 
TABS,ioos:station:wmo:42045:1,2017-03-04T07:00:00Z,26.2168,-96.4998,2.0,213.186871,17.06323533,-99999.0,'11111222,11111222,99999999' 
TABS,ioos:station:wmo:42045:1,2017-03-04T07:30:00Z,26.2168,-96.4998,2.0,212.6318072,15.02106854,-99999.0,'11111222,11111222,99999999' 
TABS,ioos:station:wmo:42045:1,2017-03-04T08:00:00Z,26.2168,-96.4998,2.0,214.5865982,18.07434646,-99999.0,'11111222,11111222,99999999' 
TABS,ioos:station:wmo:42045:1,2017-03-04T08:30:00Z,26.2168,-96.4998,2.0,208.793244,15.98655998,-99999.0,'11111222,11111222,99999999' 
TABS,ioos:station:wmo:42045:1,2017-03-04T09:00:00Z,26.2168,-96.4998,2.0,211.577559,13.92133973,-99999.0,'11111222,11111222,99999999' 
TABS,ioos:station:wmo:42045:1,2017-03-04T09:30:00Z,26.2168,-96.4998,2.0,208.6372992,18.54913745,-99999.0,'11111222,11111222,99999999' 
TABS,ioos:station:wmo:42045:1,2017-03-04T10:00:00Z,26.2168,-96.4998,2.0,217.380606,18.61274026,-99999.0,'11111222,11111222,99999999' 
TABS,ioos:station:wmo:42045:1,2017-03-04T10:30:00Z,26.2168,-96.4998,2.0,219.3690147,12.61199826,-99999.0,'11111222,11111222,99999999' 
TABS,ioos:station:wmo:42045:1,2017-03-04T11:00:00Z,26.2168,-96.4998,2.0,206.2730692,14.93265549,-99999.0,'11111222,11111222,99999999' 
TABS,ioos:station:wmo:42045:1,2017-03-04T11:30:00Z,26.2168,-96.4998,2.0,210.3926317,13.59879774,-99999.0,'11111222,11111222,99999999' 
TABS,ioos:station:wmo:42045:1,2017-03-04T12:00:00Z,26.2168,-96.4998,2.0,206.134352,16.07331018,-99999.0,'11111222,11111222,99999999' 
TABS,ioos:station:wmo:42045:1,2017-03-04T12:30:00Z,26.2168,-96.4998,2.0,204.6590012,15.19577902,-99999.0,'11111222,11111222,99999999' 
TABS,ioos:station:wmo:42045:1,2017-03-04T13:00:00Z,26.2168,-96.4998,2.0,206.2948925,16.14011772,-99999.0,'11111222,11111222,99999999' 
TABS,ioos:station:wmo:42045:1,2017-03-04T13:30:00Z,26.2168,-96.4998,2.0,210.969213,17.12070384,-99999.0,'11111222,11111222,99999999' 
TABS,ioos:station:wmo:42045:1,2017-03-04T14:00:00Z,26.2168,-96.4998,2.0,196.8109392,13.72663469,-99999.0,'11111222,11111222,99999999' 
TABS,ioos:station:wmo:42045:1,2017-03-04T14:30:00Z,26.2168,-96.4998,2.0,210.1369998,15.5754069,-99999.0,'11111222,11111222,99999999' 
TABS,ioos:station:wmo:42045:1,2017-03-04T15:00:00Z,26.2168,-96.4998,2.0,199.6268751,14.43892309,-99999.0,'11111222,11111222,99999999' 
TABS,ioos:station:wmo:42045:1,2017-03-04T15:30:00Z,26.2168,-96.4998,2.0,199.4097733,10.5920017,-99999.0,'11111222,11111222,99999999' 
TABS,ioos:station:wmo:42045:1,2017-03-04T16:00:00Z,26.2168,-96.4998,2.0,214.9208556,15.23280998,-99999.0,'11111222,11111222,99999999' 